Location: Kaarina
(60.4167°N, 22.4167°E)
Time: 23:54:12
(UTC+03:00)

Daily predictions for brighter satellites

Satellite Brightness Start Highest point End
(mag) Time Altitude Azimuth Time Altitude Azimuth Time Altitude Azimuth
Lacrosse 4 Rocket 1.8 18:49:21 10° WSW 18:53:47 68° NW 18:58:08 10° NE
Envisat 4.3 18:50:17 10° E 18:54:06 22° NE 18:57:56 10° N
Cosmos 1408 Rocket 3.7 18:53:33 10° NNW 18:58:00 82° WSW 19:02:28 10° S
SJ-6B 3.8 18:55:18 10° ESE 18:58:22 24° ENE 19:01:27 10° N
Cosmos 2285 Rocket 4.1 18:52:38 10° SSW 18:59:06 86° ESE 19:05:33 10° NNE
Sich 1 4.3 18:59:48 10° N 19:03:15 22° NE 19:06:42 10° ESE
Landsat 4 4.0 19:00:18 10° NNE 19:03:55 43° E 19:07:30 10° S
Cosmos 1703 3.4 19:00:40 10° N 19:04:36 56° ENE 19:08:28 10° SSE
Cosmos 2237 Rocket 2.8 19:00:51 10° NW 19:06:17 43° NNE 19:11:44 10° ESE
Cosmos 1805 Rocket 4.4 19:03:27 10° N 19:07:19 30° ENE 19:11:11 10° ESE
Cosmos 1484 Rocket 3.8 19:03:48 10° S 19:07:26 49° W 19:11:05 10° NNW
NOSS 3-3 (A) 4.2 19:02:23 10° SW 19:08:50 79° SSE 19:16:00 10° ENE
NOSS 3-3 (C) 4.2 19:02:30 10° SW 19:08:56 79° SSE 19:16:06 10° ENE
Cosmos 2112 Rocket 4.2 19:05:49 10° S 19:10:56 53° ESE 19:16:03 10° NE
MTI 4.3 19:10:34 10° NNE 19:13:39 39° E 19:16:42 10° S
SL-16 R/B 3.1 19:09:27 10° NW 19:14:39 34° NNE 19:19:39 11° E
Aureole 2 3.9 19:12:04 10° NNW 19:15:03 77° ENE 19:18:05 10° SE
Cosmos 1809 Rocket 4.4 19:09:08 10° S 19:15:09 67° E 19:21:12 10° NNE
Cosmos 1295 Rocket 4.4 19:09:47 10° S 19:15:52 74° E 19:22:05 10° NNE
Cosmos 1400 Rocket 2.8 19:12:07 10° NNW 19:16:16 88° ENE 19:20:19 10° SSE
Cosmos 1867 3.6 19:11:10 10° SW 19:16:36 71° SE 19:22:04 10° ENE
Meteor 1-28 Rocket 3.3 19:13:58 10° NNE 19:17:44 54° E 19:21:28 10° S
SPOT 3 Rocket 3.6 19:12:53 10° SSE 19:18:06 89° WSW 19:23:23 10° NNW
Cosmos 1953 3.1 19:17:57 10° SSW 19:21:58 57° WNW 19:26:01 10° N
CZ-4 R/B 2.8 19:18:01 10° S 19:22:04 45° W 19:26:04 10° NNW
METEOR-M 4.3 19:17:41 10° SSE 19:23:03 79° WSW 19:28:27 10° NNW
GP-B 3.1 19:19:02 10° N 19:23:29 66° E 19:27:54 10° S
ERS-2 3.9 19:21:02 10° S 19:24:31 38° W 19:28:02 10° NNW
FREGAT/IRIS 3.1 19:22:00 10° SE 19:24:50 39° ENE 19:27:40 10° N
Cosmos 1633 Rocket 4.1 19:21:33 10° N 19:25:20 27° ENE 19:29:07 10° ESE
YAOGAN 1 3.4 19:21:25 10° S 19:25:41 55° WSW 19:29:59 10° NNW
COSMOS 2428 2.7 19:20:56 10° NW 19:26:41 83° NE 19:32:23 10° SE
Cosmos 1980 4.0 19:23:53 10° NW 19:29:27 52° NE 19:34:45 11° ESE
Cosmos 2333 Rocket 2.3 19:24:27 10° NW 19:30:10 63° NE 19:35:53 10° ESE
NOSS 7 (D) 4.4 19:27:54 10° WSW 19:31:10 86° NNW 19:34:26 13° ENE
Cosmos 2360 Rocket 2.8 19:25:42 10° NW 19:31:17 60° WSW 19:36:50 10° SSE
Timation 2 Rocket 4.1 19:25:06 10° SSW 19:31:39 71° SE 19:38:28 10° NE
Cosmos 1452 Rocket 3.8 19:26:35 10° NW 19:31:51 74° WSW 19:37:05 10° SSE
Cosmos 1733 4.0 19:30:04 10° SSW 19:33:52 55° WNW 19:37:44 10° N
SL-16 R/B 4.5 19:29:53 10° NNE 19:34:51 26° NW 19:39:48 10° W
Cosmos 1908 4.3 19:31:58 10° SE 19:35:11 25° E 19:38:25 10° NNE
USA 161 4.2 19:33:24 10° NNW 19:35:21 18° WNW 19:37:12 10° WSW
NOAA 12 4.2 19:31:42 10° SSE 19:37:02 84° WSW 19:42:26 10° NNW
Cosmos 192 4.5 19:32:18 10° SW 19:37:15 79° NW 19:42:13 10° NNE
CZ-2C R/B 3.7 19:32:49 10° NNE 19:37:28 82° ESE 19:42:00 10° SSW
Cosmos 2322 Rocket 4.2 19:32:38 10° NW 19:37:29 31° WSW 19:42:21 10° S
Cosmos 1242 Rocket 2.7 19:33:56 10° SSW 19:37:36 77° WNW 19:41:21 10° NNE
Meteor 2-21 Rocket 4.4 19:32:41 10° S 19:38:45 75° E 19:44:48 10° NNE
SKYMED 2 3.7 19:34:47 10° NNE 19:39:05 52° E 19:43:19 10° S
Cosmos 2082 Rocket 2.7 19:33:40 10° SW 19:39:21 64° NW 19:45:05 10° NE
Cosmos-2242 2.9 19:35:09 10° S 19:39:25 85° ESE 19:43:42 10° NNE
ALOS 2.3 19:35:48 10° SSE 19:40:30 85° WSW 19:45:14 10° NNW
USA 234 3.5 19:34:14 11° ESE 19:40:35 65° S 19:47:09 10° W
Cosmos 2151 3.2 19:38:12 10° NNW 19:42:31 74° W 19:46:48 10° S
Cosmos 1726 4.1 19:44:49 13° NE 19:44:49 13° NE 19:45:35 10° NE
H-2A R/B 2.8 19:39:25 10° SSE 19:43:15 61° ENE 19:47:11 10° N
Cosmos 1743 Rocket 4.2 19:40:47 10° NNW 19:45:06 60° W 19:49:25 10° S
Cosmos 2366 rocket 3.9 19:39:48 10° S 19:45:58 70° E 19:52:07 10° NNE
COSMOS 2487 4.2 19:43:12 10° WSW 19:46:27 32° NW 19:49:43 10° NNE
H-2A R/B 3.9 19:45:26 13° ENE 19:47:48 17° NE 19:51:06 10° N
FengYun 1-2 T 4.2 19:44:10 10° SSE 19:49:39 78° ENE 19:55:11 10° NNW
Cosmos 1939 Rocket 4.0 19:48:47 19° E 19:50:37 26° NE 19:54:06 10° N
Meteor 2-1 Rocket 4.5 19:45:16 10° S 19:50:53 51° E 19:56:36 10° NNE
HJ-1C 3.5 19:47:36 10° SE 19:50:56 54° ENE 19:54:19 10° N
Cosmos 1110 Rocket 4.1 19:48:35 10° NNW 19:53:55 61° NE 19:58:32 14° SE
ATLAS 5 CENTAUR R/B 2.2 19:49:16 10° W 19:54:21 69° NNW 19:58:52 16° ENE
Spot 2 Rocket 3.8 19:53:28 12° SE 19:57:55 46° ENE 20:02:46 10° NNW
Cosmos 1315 Rocket 3.1 19:54:01 10° NNW 19:58:03 70° WSW 20:02:07 10° S
CZ-2D R/B 3.5 19:55:16 12° SE 19:58:41 48° ENE 20:02:28 10° N
SL-8 Rocket 4.1 19:54:24 10° SSW 20:00:38 82° WNW 20:06:58 10° NNE
Cosmos 1626 3.8 19:58:55 10° NNW 20:02:25 38° W 20:05:54 10° SSW
NOSS 2-1 (C) 3.8 19:58:35 10° WSW 20:02:46 77° NNW 20:06:46 18° ENE
Cosmos 1842 Rocket 3.5 19:58:20 10° S 20:02:47 68° E 20:07:14 10° NNE
NOSS 2-1 (D) 3.8 19:58:51 10° WSW 20:03:03 76° NNW 20:07:02 18° ENE
NOSS 0 Rocket 3.9 19:56:56 10° NW 20:03:12 84° NE 20:08:46 13° SE
Aureole 1 Rocket 3.4 19:57:51 10° SSW 20:03:35 64° ESE 20:07:56 10° NE
Cosmos 1892 3.8 20:02:37 10° N 20:05:53 25° ENE 20:06:23 24° ENE
Resurs 01 Rocket 1.7 20:05:51 15° SE 20:09:21 53° ENE 20:13:41 10° NNW
Meteor 1-16 Rocket 4.3 20:05:43 10° SSW 20:11:02 76° WNW 20:16:30 10° NNE
Cosmos 2221 2.8 20:07:05 10° SSE 20:11:12 44° E 20:15:24 10° NNE
Cosmos 921 Rocket 4.2 20:07:12 10° NW 20:11:32 45° WSW 20:15:46 10° S
Cosmos 1833 Rocket 3.6 20:06:16 10° WSW 20:11:44 48° NW 20:17:12 10° NE
Thor Agena Rocket 3.7 20:07:52 10° NNE 20:12:52 47° E 20:17:46 10° S
Cosmos 2058 4.3 20:09:06 10° NNW 20:13:07 43° W 20:17:04 10° SSW
Cosmos 1470 Rocket 4.2 20:09:39 10° N 20:13:51 37° ENE 20:15:30 27° ESE
USA 186 2.6 20:15:07 24° NNE 20:15:07 24° NNE 20:16:36 10° N
FENGYUN 3A 4.4 20:09:22 10° S 20:14:41 56° W 20:20:03 10° NNW
deb Kosmos-1763 4.1 20:10:56 10° SSW 20:14:46 82° ESE 20:18:39 10° NE
EO 1 Del DPAF 3.6 20:12:46 10° NNE 20:16:37 68° WNW 20:20:27 10° SSW
GRACE-2 4.4 20:16:16 10° SSW 20:18:49 55° W 20:21:24 10° N
CSL-04 DEB 4.5 20:15:36 10° SSE 20:19:43 79° WSW 20:23:46 10° NNW
Helios 1A 4.1 20:20:25 25° ENE 20:20:53 26° NE 20:24:22 10° N
Cosmos 2219 Rocket 2.3 20:15:59 10° NW 20:21:35 74° SW 20:26:46 12° SSE
Cosmos 2218 Rocket 4.2 20:15:57 10° SSW 20:22:06 72° WNW 20:28:17 10° NNE
Cosmos 1461 3.0 20:18:12 10° SW 20:22:16 56° SE 20:24:10 30° ENE
Cosmos 1821 Rocket 4.1 20:17:27 10° SSE 20:23:24 53° E 20:29:30 10° NNE
Geosat 4.0 20:20:33 24° SE 20:23:39 72° NE 20:28:41 10° NW
YAOGAN 6 3.4 20:23:51 33° ENE 20:24:04 33° ENE 20:27:28 10° N
Iridium 4 Rocket 3.7 20:18:29 10° S 20:24:07 74° E 20:30:03 10° N
Aureole 2 Rocket 2.8 20:20:35 10° NW 20:24:14 69° WSW 20:27:01 18° SSE
Terra 3.8 20:23:37 13° NE 20:24:24 13° NE 20:26:32 10° N
Resurs 1-3 3.5 20:22:39 19° SE 20:25:41 66° ENE 20:30:04 10° NNW
Cosmos 1680 Rocket 4.1 20:20:32 10° SW 20:25:45 57° NW 20:30:57 10° NNE
COSMO-SKYMED 1 2.9 20:22:54 10° NNE 20:27:15 70° WNW 20:31:35 10° SSW
Cosmos 2084 3.9 20:24:23 10° WNW 20:28:03 46° SW 20:29:55 25° SSE
Genesis I 3.5 20:24:55 10° WSW 20:28:51 66° NNW 20:30:50 28° NE
Lacrosse 5 rocket 1.8 20:24:50 10° WSW 20:29:04 47° SSE 20:30:15 36° ESE
NOSS 2-1 (E) 4.0 20:25:00 10° W 20:29:20 70° NNW 20:32:39 24° ENE
Cosmos 1934 Rocket 4.2 20:25:29 10° SSE 20:31:33 49° E 20:37:38 10° NNE
Cosmos 2239 Rocket 4.5 20:25:58 10° S 20:31:58 58° E 20:38:02 10° NNE
Envisat 2.9 20:28:26 16° SSE 20:32:27 72° ENE 20:37:34 10° NNW
SJ-6B 3.2 20:29:07 10° S 20:32:49 59° WSW 20:36:33 10° NNW
Lacrosse 4 Rocket 2.9 20:29:06 10° WNW 20:33:08 33° NNW 20:35:48 17° NE
ARGOS 4.1 20:33:13 27° ENE 20:34:35 31° NE 20:39:19 10° N
Cosmos 2123 Rocket 3.9 20:34:23 10° NNW 20:40:39 87° ENE 20:46:56 10° SSE
Sich 1 3.1 20:37:08 10° NNW 20:41:30 80° W 20:45:18 14° S
USA 267 4.4 20:43:32 21° SE 20:43:32 21° SE 20:47:35 10° S
Cosmos 1805 Rocket 4.2 20:41:10 10° NNW 20:45:28 56° W 20:49:46 10° S
Meteor 2-3 Rocket 3.8 20:40:22 10° NNW 20:46:10 62° ENE 20:48:56 31° SE
SJ-11-01 4.3 20:46:51 37° SE 20:48:37 65° ENE 20:53:21 10° NNW
Cosmos 2237 Rocket 2.3 20:45:06 10° NW 20:50:50 77° SW 20:54:04 27° SSE
In-Cosmos 22 Rocket 4.2 20:45:56 10° NNW 20:51:36 85° WSW 20:56:40 14° SSE
Cosmos 158 Rocket 4.1 20:46:46 10° S 20:51:40 49° ESE 20:56:44 10° NE
Cosmos 1331 Rocket 4.1 20:47:26 10° NW 20:52:43 74° WSW 20:55:48 25° SSE
Cosmos 1408 4.4 20:49:46 10° N 20:51:36 20° NNE 20:51:36 20° NNE
Cosmos 1666 Rocket 3.9 20:49:39 10° NNW 20:54:02 66° W 20:57:34 15° S
ERS-1 Rocket 3.4 20:55:37 39° ENE 20:56:15 41° ENE 21:00:59 10° N
Cosmos 1943 4.1 20:51:01 10° NW 20:56:18 36° NNE 20:58:13 29° ENE
Cosmos 1605 Rocket 4.0 20:52:58 17° SSE 20:57:28 50° E 21:03:20 10° NNE
Cosmos 1825 3.9 20:54:34 10° N 20:56:29 21° NNE 20:56:29 21° NNE
Cosmos 1603 4.2 20:53:35 10° NW 20:59:02 45° NNE 21:00:39 36° ENE
SL-16 R/B 2.2 20:53:54 10° NW 20:59:37 74° NE 21:01:32 43° ESE
Meteor 2-10 4.0 20:58:03 36° SSE 20:59:46 52° E 21:04:48 10° NNE
NOSS 3-3 (A) 4.4 20:53:25 10° W 21:00:05 71° N 21:04:10 28° ENE
NOSS 3-3 (C) 4.4 20:53:31 10° W 21:00:11 71° N 21:04:17 28° ENE
Cosmos 1867 4.0 20:55:01 10° W 21:00:26 60° NNW 21:03:15 28° NE
Cosmos 1933 Rocket 3.4 20:57:36 10° NNW 21:01:58 71° ENE 21:02:32 61° ESE
Cosmos 1633 Rocket 3.4 20:59:09 10° NNW 21:03:32 65° W 21:06:23 21° S
Cosmos 1269 Rocket 4.5 20:59:32 10° S 21:09:18 12° NE 21:09:39 10° NE
MOS 1-B Rocket 4.4 21:01:00 10° S 21:06:40 63° WSW 21:13:01 10° NNW
COSMOS 2428 4.4 21:05:36 10° NW 21:10:30 30° WSW 21:15:23 10° SSW
Cosmos 1908 4.0 21:07:00 10° SSW 21:10:52 53° WNW 21:14:43 10° N
Spot 1 4.5 21:13:36 46° NE 21:13:36 46° NE 21:17:17 10° NNW
Cosmos 2098 Rocket 3.6 21:08:38 10° SSW 21:13:27 82° WNW 21:19:41 10° NNE
Cosmos 1980 4.2 21:08:10 10° NW 21:13:42 57° WSW 21:16:36 28° S
Cosmos 2333 Rocket 3.2 21:08:57 10° NW 21:14:23 45° WSW 21:18:19 18° S
SPOT 5 3.7 21:14:36 37° NE 21:14:36 37° NE 21:19:15 10° N
Cosmos 468 4.3 21:10:06 10° SSW 21:15:19 74° ESE 21:20:35 10° NE
Cosmos 1302 Rocket 4.0 21:12:28 10° NW 21:17:42 76° WSW 21:19:18 45° SSE
Cosmos 1726 3.1 21:19:22 38° N 21:19:22 38° N 21:21:45 10° NNE
USA 32 4.0 21:14:53 10° N 21:20:09 82° W 21:22:36 33° S
Cosmos 1447 Rocket 4.5 21:14:30 10° NNW 21:20:54 87° W 21:24:27 28° S
USA 234 4.0 21:21:35 29° SSE 21:24:20 42° SSW 21:30:33 10° WNW
Cosmos 2082 Rocket 3.7 21:19:17 10° W 21:24:27 33° NNW 21:28:42 14° NE
Cosmos 1939 Rocket 3.2 21:24:42 57° SSW 21:25:17 66° WSW 21:29:27 10° NNW
MetOp-A 4.1 21:25:29 59° E 21:25:59 62° ENE 21:31:18 10° NNW
H-2A R/B 2.5 21:26:04 45° ENE 21:26:05 45° ENE 21:31:14 10° NNW
Cosmos 1833 4.1 21:21:01 10° SW 21:26:43 87° NW 21:31:31 15° NE
Cosmos 2219 4.3 21:25:33 10° SSW 21:39:01 - NE 21:28:24 29° S
Spot 2 Rocket 4.4 21:33:41 20° SSW 21:36:57 45° W 21:41:51 10° NNW
ATLAS 5 CENTAUR R/B 2.2 21:34:12 10° WNW 21:39:32 70° NNE 21:40:23 60° ENE
Cosmos 1892 3.5 21:38:09 10° NNW 21:41:26 50° WNW 21:41:26 50° WNW
Resurs 01 Rocket 3.3 21:43:26 17° SSW 21:46:05 32° W 21:50:04 10° NNW
Cosmos 1992 Rocket 3.9 21:43:16 10° NNW 21:48:29 82° NE 21:48:29 82° NE
Cosmos 2221 4.1 21:44:55 10° SW 21:48:55 36° WNW 21:53:00 10° N
NOSS 2-1 (C) 4.2 21:49:12 10° WNW 21:53:48 65° N 21:54:08 63° NNE
NOSS 2-1 (D) 4.2 21:49:28 10° WNW 21:54:05 65° N 21:54:23 64° NNE
COSMOS 2406 4.5 21:49:28 10° NW 21:54:38 32° NNE 21:56:00 28° NE
Helios 1A 3.7 21:57:04 51° NW 21:57:04 51° NW 22:00:22 10° NNW
Cosmos 1833 Rocket 4.3 21:51:59 10° WNW 21:56:53 29° N 21:59:51 19° NE
YAOGAN 6 4.2 21:58:18 36° WNW 21:58:18 36° WNW 22:01:09 10° NNW
Terra 3.1 22:02:30 30° NNE 22:02:30 30° NNE 22:05:26 10° N
Cosmos 1461 3.8 21:57:18 10° W 22:00:38 48° WNW 22:00:38 48° WNW
Cosmos 1048 Rocket 4.2 21:59:17 10° SW 22:08:46 15° NNE 22:09:35 10° NNE
Cosmos 2219 Rocket 4.3 22:00:41 10° NW 22:04:45 21° WSW 22:08:32 11° SSW
Meteor 2-17 Rocket 4.3 22:07:43 82° E 22:07:43 82° E 22:13:47 10° NNE
H-2A R/B 4.3 22:09:53 16° NNE 22:09:53 16° NNE 22:11:07 10° N
Lacrosse 5 rocket 3.1 22:03:48 10° W 22:05:56 27° WSW 22:05:56 27° WSW
NOAA 11 4.5 22:10:19 57° SW 22:10:52 61° WSW 22:16:17 10° NNW
Cosmos 1459 Rocket 4.2 22:13:19 58° NE 22:13:19 58° NE 22:18:39 10° NNE
Lacrosse 4 Rocket 3.1 22:08:50 10° NW 22:12:06 30° N 22:12:06 30° N
ARGOS 3.2 22:14:44 77° WNW 22:14:44 77° WNW 22:19:57 10° NNW
NOSS 2-1 (E) 4.3 22:15:37 10° WNW 22:20:00 66° NNW 22:20:00 66° NNW
MetOp-B 4.3 22:20:53 67° W 22:20:53 67° W 22:26:03 10° NNW
Tsikada Rocket 3.9 22:14:36 10° NNW 22:20:45 78° NE 22:20:45 78° NE
Cosmos 2100 Rocket 4.1 22:31:38 65° NNE 22:31:38 65° NNE 22:36:51 10° NNE
Cosmos 2237 Rocket 4.1 22:29:50 10° NW 22:34:09 23° WSW 22:35:55 19° SW
SPOT 1/Viking Rocket 4.2 22:36:04 52° NNW 22:36:04 52° NNW 22:39:57 10° NNW
ERS-1 Rocket 3.8 22:35:37 48° WNW 22:35:37 48° WNW 22:39:58 10° NNW
Cosmos 1943 3.6 22:35:22 10° NW 22:40:01 59° NNW 22:40:01 59° NNW
SL-16 R/B 3.3 22:38:20 10° NW 22:43:24 36° WSW 22:43:24 36° WSW
Cosmos 1603 4.2 22:37:52 10° NW 22:42:32 57° WNW 22:42:32 57° WNW
Cosmos 1867 4.3 22:39:19 10° WNW 22:43:54 50° NNW 22:43:54 50° NNW
NOSS 3-3 (A) 4.2 22:44:40 10° WNW 22:51:36 81° NNE 22:51:36 81° NNE
NOSS 3-3 (C) 4.2 22:44:46 10° WNW 22:51:42 80° NNE 22:51:42 80° NNE
SPOT 5 4.0 22:53:51 42° NW 22:53:51 42° NW 22:57:31 10° NNW
Cosmos 2173 Rocket 4.4 23:04:51 58° NNW 23:04:51 58° NNW 23:09:59 10° NNE
H-2A R/B 3.2 23:06:43 42° WNW 23:06:43 42° WNW 23:10:49 10° NNW
Cosmos 2082 Rocket 3.7 23:05:02 10° NW 23:10:04 30° N 23:10:32 30° NNE
ATLAS 5 CENTAUR R/B 3.5 23:18:54 10° WNW 23:21:55 34° WNW 23:21:55 34° WNW
CZ-2C R/B 4.5 23:32:20 38° N 23:32:20 38° N 23:35:52 10° NNW
Terra 3.9 23:41:24 24° NW 23:41:24 24° NW 23:43:24 10° NNW
COSMOS 2406 4.5 23:34:18 10° NW 23:38:03 38° NNW 23:38:03 38° NNW
Cosmos 1833 Rocket 4.2 23:37:16 10° NW 23:41:32 31° N 23:41:32 31° N
Lacrosse 4 Rocket 4.4 23:47:51 10° NW 23:48:26 13° NW 23:48:26 13° NW
